www.pogodaiklimat.ru
ПОГОДА в Беннингтоне
Время
(UTC), дата
22:54 12.11
23:54 12.11
00:54 12.11
01:54 12.11
02:54 12.11
03:54 12.11
04:54 13.11
05:54 13.11
06:54 13.11
07:54 13.11
08:54 13.11
09:54 13.11
10:54 13.11
11:54 13.11
12:54 13.11
13:54 13.11
14:54 13.11
15:54 13.11
16:54 13.11
17:54 13.11
18:54 13.11
19:54 13.11
20:54 13.11
21:54 13.11
22:54 13.11
23:54 13.11
00:54 13.11
01:54 13.11
02:54 13.11
03:54 13.11
04:54 14.11
05:54 14.11
06:54 14.11
07:54 14.11
08:54 14.11
09:54 14.11
10:54 14.11
11:54 14.11
12:54 14.11
13:54 14.11
14:54 14.11
15:54 14.11
16:54 14.11
17:54 14.11
18:54 14.11
19:54 14.11
20:54 14.11
21:54 14.11
Ветер
(напр.,м/с)
Видим. Явления Облачность Т
(С)
Тd
(С)
f
(%)
Тe
(С)
Тes
(С)
Комфортность P
(гПа)
Po
(гПа)
Тmin
(С)
Tmax
(С)
R
(мм)
R24
(мм)
S
(см)
З 6
{10}
16 км ясно -6.7 -13.9 57 -15 -15 1016.9 985.5 -6.7 -3.9
З 4
{8}
16 км ясно -7.2 -15.0 54 -14 -14 1017.3 986.1
З 4 16 км ясно -7.8 -14.4 59 -15 -15 1017.8 986.5
З 4 16 км ясно -8.3 -14.4 61 -15 -15 1018.3 986.8
З 3 16 км ясно -8.9 -15.6 58 -15 -15 1018.6 987.1
З 5
{10}
16 км ясно -8.9 -17.2 51 -17 -17 1018.8 987.1
З 4 16 км ясно -9.4 -16.7 55 -17 -17 1019.0 987.4 -9.4 -6.7
СЗ 3 16 км ясно -10.0 -17.2 56 -16 -16 1019.4 987.8
СЗ 3 16 км ясно -10.6 -17.8 55 -17 -17 1020.0 988.4
З 4 16 км ясно -11.1 -18.3 55 -18 -18 1020.7 989.1
нст 3 16 км ясно -11.7 -18.3 58 -18 -18 1021.6 990.1
З 3 16 км ясно -12.2 -18.9 57 -18 -18 1022.2 990.4
З 4 16 км ясно -12.2 -18.9 57 -20 -20 1023.3 991.4 -12.2 -9.4 2.3
З 4 16 км ясно -11.1 -18.9 53 -19 -19 1024.6 992.7
нст 3 16 км ясно -10.0 -18.3 51 -16 -15 1025.4 993.7
З 4 16 км ясно -9.4 -17.8 50 -16 -15 1026.7 994.7
З 4 16 км ясно -8.3 -17.2 49 -15 -13 1026.7 995.0
З 4
{8}
16 км ясно -7.2 -16.1 49 -14 -11 1026.5 994.7
СЗ 4 16 км ясно -6.1 -16.1 45 -13 -10 1026.7 995.0 -12.2 -6.1
СЗ 4 16 км ясно -5.6 -15.0 47 -12 -9 1027.0 995.3
З 3 16 км ясно -5.6 -15.0 47 -11 -8 1027.7 996.0
ЮЗ 3 16 км ясно -6.1 -14.4 52 -11 -10 1028.1 996.3
ЮЗ 3 16 км ясно -6.7 -14.4 54 -12 -12 1028.8 996.6
0 16 км ясно -7.8 -14.4 59 -8 -8 1029.0 997.0
Ю 1 16 км ясно -8.9 -14.4 64 -12 -12 1029.6 997.6 -10.0 -5.0
В 2 16 км ясно -9.4 -13.9 70 -15 -15 1030.0 998.0
0 16 км ясно -10.6 -13.9 77 -11 -11 1030.2 998.0
В 1 16 км 5/0 3300 м
[средняя]
-8.9 -13.3 70 -12 -12 1030.3 998.3
ЮВ 1 16 км 8/0 3300 м
[средняя]
-8.9 -12.8 73 -12 -12 1030.6 998.6
ЮВ 1 16 км 10/0 3000 м
[средняя]
-8.3 -12.8 70 -12 -12 1030.6 998.6
ЮВ 1 16 км 10/0 2850 м
[средняя]
-7.8 -13.3 65 -11 -11 1030.5 998.6 -10.6 -7.8
ЮВ 1 16 км 8/0 2100 м
[средняя]
-7.8 -13.3 65 -11 -11 1030.0 998.3
СВ 1 16 км 5/2 1800 м
[средняя]
-7.8 -12.2 71 -11 -11 1030.1 998.3
0 16 км ясно -7.8 -12.2 71 -8 -8 1029.6 997.6
ЮВ 3 16 км ясно -5.6 -15.0 47 -11 -11 1028.8 997.0
0 16 км ясно -6.1 -15.0 49 -6 -6 1029.1 997.3
ЮВ 3 16 км ясно -5.6 -15.6 45 -11 -11 1028.9 997.0 -7.8 -5.6
ЮВ 4 16 км 2/0 3000 м
[средняя]
-4.4 -14.4 46 -10 -10 1029.8 998.0
ЮВ 3 16 км 5/0 3000 м
[средняя]
-3.3 -13.3 46 -8 -8 1029.6 997.6
Ю 4 16 км 8/0 2850 м
[средняя]
-2.2 -10.0 55 -8 -7 1029.1 997.3
Ю 3 16 км 10/0 2550 м
[средняя]
-1.1 -8.9 55 -6 -5 1028.5 997.0
Ю 5 16 км 10/0 2100 м
[средняя]
-0.6 -8.9 53 -7 -6 1028.0 996.3
Ю 4 16 км 10/10 1950 м 0.0 -8.3 54 -5 -5 1027.2 995.7 -5.6 0.0
Ю 4 16 км 10/10 1950 м +0.6 -7.8 53 -4 -4 1026.7 995.0
нст 1 16 км 10/0 2100 м
[средняя]
+0.6 -7.8 53 -2 -1 1026.0 994.7
Ю 3 16 км 10/0 2700 м
[средняя]
+1.1 -7.2 54 -3 -2 1025.3 993.7
Ю 4 16 км 8/0 3300 м
[средняя]
+1.7 -7.2 52 -3 -3 1024.9 993.7
Ю 2 16 км 5/0 3300 м
[средняя]
+1.7 -7.8 49 -2 -2 1024.7 993.4
Местоположение метеостанции Bennington Morse State Airport: широта 42.8936 долгота -73.2486 высота над уровнем моря 252 м.
В архиве по умолчанию представлена погода в Беннингтоне за последние 1-2 суток. Обновление информации о фактической погоде в базе происходит ежечасно! Архивные данные за месяц целиком и за предыдущие месяцы Вы можете получить, выбрав интересующий диапазон дат из раскрывающегося списка и нажав кнопку "Ввод!".
Внимание! Архив погоды МЕТАР в базе сайта по станциям, не включенным в климатический монитор, хранится не более 60 дней. Нет смысла пытаться выбрать более раннюю дату.
*Определитесь, кто Вы:
Внимание! Время в таблицах - всемирное. Для получения местного времени необходимо прибавить поправку, которая равна ч.
Смотрите также архив погоды в соседних городах и на ближайших метеорологических станциях:
Партнеры нашего сайта:      
Пояснения к столбцам:
  • Ветер - указаны скорость ветра в м/с - средняя за 10 мин, порывы в срок и между сроками (в фигурных скобках) и направление, откуда дует ветер: С - северный,
  • СВ - северо-восточный, В - восточный, ЮВ - юго-восточный, Ю - южный, ЮЗ - юго-западный, З - западный, СЗ - северо-западный.
  • Видимость - горизонтальная дальность видимости в метрах или километрах. При видимости от 1 до 10 км при отсутствии осадков обычно наблюдается дымка, при ухудшении видимости до 1 км и менее - туман. В сухую погоду видимость может ухудшаться дымом, пылью или мглою.
  • Явления - указаны атмосферные явления, наблюдавшиеся в срок или в последний час перед сроком; фигурными скобками обозначены явления, наблюдавшиеся между сроками (за 1-3 часа до срока); квадратными скобками обозначены град или гололедные отложения с указанием их диаметра в мм.
  • Облачность - указаны через наклонную черту общая и нижняя облачность в баллах и высота нижней границы облаков в метрах; квадратными скобками обозначены формы облаков: Ci - перистые, Cs - перисто-слоистые, Cc - перисто-кучевые, Ac - высококучевые, As - высокослоистые, Sc - слоисто-кучевые, Ns - слоисто-дождевые, Cu - кучевые, Cb - кучево-дождевые. Подробнее классификацию облаков см. в Атласе облаков (PDF).
  • T - Температура воздуха - температура, измеренная на высоте 2 м над землей.
  • Td - Температура точки росы - температура, при понижении до которой содержащийся в воздухе водяной пар достигнет насыщения.
  • f - Относительная влажность воздуха - влажноcть воздуха, измеренная на высоте 2 м над землей.
  • Te - Эффективная температура - температура, которую ощущает одетый по сезону человек в тени. Характеристика душности погоды. При расчете учитывается влияние влажности воздуха и скорости ветра на теплоощущения человека.
  • Tes - Эффективная температура на солнце - температура, которую ощущает человек, с поправкой на солнечный нагрев. Характеристика знойности погоды. Зависит от высоты солнца над горизонтом, облачности и скорости ветра. Ночью, в пасмурную погоду, а также при ветре 12 м/с и более поправка равна нулю.
  • P - Атмосферное давление - приведенное к уровню моря атмосферное давление.
  • Po - Атмосферное давление - измеренное на уровне метеостанции атмосферное давление.
  • Tmin - Минимальная температура - минимум температуры воздуха на высоте 2 м над землей.
  • Tmax - Максимальная температура - максимум температуры воздуха на высоте 2 м над землей.
  • R - Количество осадков - Количество выпавших осадков за период времени, мм. При наведении курсора мыши на число - период времени, за который выпало указанное количество осадков.
  • R24 - Количество осадков - Количество выпавших осадков за 24 часа, мм.
  • S - Снежный покров - Высота снежного покрова, см. При наведении курсора мыши на число - состояние снежного покрова и степень покрытия местности в баллах.